カタログに戻る

STARLINK-2547

運用中通信VLEO
NORAD 48286·PAYLOAD·🇺🇸 United States

打ち上げ Apr 29, 2021 から Cape Canaveral Space Force Station

Loading…

次のパス (今後24時間)

TLE

最新Source: CelesTrak SupGP

元期: Sep 14, 2026, 20:14 UTC

1 48286C 21036L   26257.84354167  .00025850  00000+0  83076-3 0  2573
2 48286  53.1565 275.1688 0001292  97.9093  47.7250 15.31708982    13

AllMySatでSTARLINK-2547をリアルタイム追跡

Download on the App Store